Regional Weather Roundup
Issued by NWS Wakefield, VA

Home | Current Version | Previous Version | Graphics & Text | Print | Product List | Glossary On
Versions: 1 2 3 4 5 6 7 8 9 10 11 12 13 14 15 16 17 18 19 20 21 22 23 24 25 26 27 28 29 30 31 32 33 34 35 36 37 38 39 40 41 42 43 44 45 46 47 48 49 50
000
ASUS41 KAKQ 281815
RWRAKQ

REGIONAL WEATHER ROUNDUP
NATIONAL WEATHER SERVICE WAKEFIELD VA
200 PM EDT FRI APR 28 2017

Note: "fair" indicates few or no clouds below 12,000 feet with no
significant weather and/or obstructions to visibility. * = Denotes
station may not report precipitation (e.g., rain,snow,etc.),
thunder or fog.

VAZ042-051-052>054-056-281900-
NORTHERN VIRGINIA

CITY           SKY/WX    TMP DP  RH WIND       PRES   REMARKS
WASH NATIONAL  MOSUNNY   82  60  47 S12       30.03F
DULLES         MOSUNNY   79  57  46 E9        30.03F
FORT BELVOIR   SUNNY     83  55  39 S9        30.04S
QUANTICO       MOSUNNY   80  63  55 SW7       30.05S
FREDERICKSBRG* MOSUNNY   82  63  51 E8        30.03S
STAFFORD*      MOSUNNY   79  61  54 E6        30.08R
WARRENTON      MOSUNNY   84  54  35 SW6       30.03F
CULPEPER*      PTSUNNY   82  60  47 S7        30.04S
MANASSAS*        N/A     82  60  47 CALM      30.03F
LEESBURG*      SUNNY     82  59  44 SW5       30.04F
WINCHESTER     SUNNY     79  54  41 CALM      30.03F
FRONT ROYAL*   CLEAR     81  57  44 SE6       30.02S
LURAY*         CLEAR     81  54  39 S8        30.03F
$$

VAZ048-049-060>072-079>083-281900-
CENTRAL AND SOUTH CENTRAL VIRGINIA

CITY           SKY/WX    TMP DP  RH WIND       PRES   REMARKS
RICHMOND       PTSUNNY   83  66  56 SW8G23    30.04S
CHESTERFIELD*  FAIR      82  55  39 W10       30.06S
PETERSBURG*    PTSUNNY   82  64  54 SW7       30.06S
HANOVER        MOSUNNY   83  62  49 SW6       30.05F
TAPPAHANNOCK*  MOSUNNY   83  56  40 E3        30.05S
QUINTON*       MOCLDY    81  67  61 S5        30.04F
CHARLOTTSVILLE SUNNY     84  58  40 CALM      30.03F
GORDONSVILLE*  CLEAR     82  60  47 SW5       30.03F
ORANGE*        MOSUNNY   81  61  50 E3        30.03F
LOUISA*        MOSUNNY   84  64  51 CALM      30.03F
BUMPASS*       FAIR      81  64  54 CALM      30.04S
FARMVILLE*     MOSUNNY   82  65  55 SW7       30.04S
CREWE*         FAIR      80  68  65 S5        30.05F
FORT PICKETT*  MOCLDY    80  64  58 SW9       30.06F
CHASE CITY*    FAIR      80  67  65 SW5       30.07S
CLARKSVILLE*   MOCLDY    81  66  61 W5        30.05F
SOUTH HILL*    MOSUNNY   82  69  63 W8G17     30.11F
LAWRENCEVILLE* MOCLDY    83  67  58 SW7       30.05F
EMPORIA*       PTSUNNY   81  70  69 CALM      30.07S
$$

VAZ088>098-281900-
SOUTHEAST VIRGINIA

CITY           SKY/WX    TMP DP  RH WIND       PRES   REMARKS
NORFOLK        PTSUNNY   83  71  67 CALM      30.05F
VIRGINIA BEACH NOT AVBL
NORFOLK NAVAL  MOSUNNY   84  69  60 VRB3      30.07
WEST POINT*    PTSUNNY   82  66  56 S5        30.06S
SALUDA*        MOCLDY    77  70  78 E6        30.05S
NEWPORT NEWS   MOSUNNY   83  70  64 SW10      30.05F
LANGLEY AFB    PTSUNNY   82  72  69 SW6       30.05F
FORT EUSTIS    MOSUNNY   86  72  62 S3        30.03F
WILLIAMSBURG*  SUNNY     86  70  58 CALM      30.06S
HR EXEC AP*    FAIR      84  72  65 W7        30.03F
FRANKLIN*      PTSUNNY   83  69  63 SW6       30.06S
US460-WAKEFLD  MOSUNNY   82  69  64 VRB6      30.05F
$$

VAZ020-022-025-037-045-281900-
WEST CENTRAL AND SOUTHWEST VIRGINIA

CITY           SKY/WX    TMP DP  RH WIND       PRES   REMARKS
STAUNTON*      MOSUNNY   80  57  46 S8        30.07S
WAYNESBORO*    PTCLDY    78  61  55 S3        30.07S
HOT SPRINGS VA MOSUNNY   68  48  49 S9        30.17S
LYNCHBURG      SUNNY     80  57  45 SW5       30.07F
DANVILLE       MOSUNNY   80  67  64 VRB5      30.06F
SOUTH BOSTON*  FAIR      82  65  57 SW3       30.06F
MARTINSVILLE   PTSUNNY   79  62  56 SW7       30.10S
ROANOKE        MOSUNNY   79  62  56 SE8       30.07F
BLACKSBURG     SUNNY     77  56  47 S3        30.11F
DUBLIN*        SUNNY     78  50  36 SE5       30.09F
MARION*        SUNNY     78  52  39 NE6       30.10F
HILLSVILLE*    SUNNY     74  62  66 S3        30.11R
RICHLANDS*     FAIR      77  43  29 W5        30.08S
WISE*          SUNNY     77  37  24 S9G18     30.07F
ABINGDON*      SUNNY     81  49  32 CALM      30.05F
$$

MDZ021>025-VAZ099-100-281900-
SOUTHERN MARYLAND AND THE DELMARVA PENINSULA

CITY           SKY/WX    TMP DP  RH WIND       PRES   REMARKS
PATUXENT RIVER MOSUNNY   77  64  64 SE8       30.05S
BAY BRIDGE APT SUNNY     82  59  44 S7        30.04S
LEONARDTOWN    SUNNY     79  55  44 NE7       30.06S
DOVER          SUNNY     81  79  95 E10       30.02S
GEORGETOWN     MOSUNNY   84  59  42 VRB5      30.04S
EASTON         SUNNY     82  55  39 NW5       30.08S
CAMBRIDGE      SUNNY     81  55  41 NW7       30.04F
SALISBURY      MOSUNNY   83  62  49 S6        30.04S
OCEAN CITY     SUNNY     70  63  78 S8        30.05S
WALLOPS ISLAND MOSUNNY   76  69  79 S10       30.06S
ACCOMACK*      MOSUNNY   80  68  66 W9        30.06S
$$

NCZ012>017-030>032-281900-
NORTH CENTRAL AND EASTERN NORTH CAROLINA

CITY           SKY/WX    TMP DP  RH WIND       PRES   REMARKS
ROANOKE RAPIDS MOCLDY    82  70  65 SW9       30.06S
RALEIGH        PTSUNNY   83  69  62 SW9       30.07F
ELIZABETH CITY MOSUNNY   85  73  67 SW13      30.07S
AHOSKIE*         N/A     83  70  64 S5        30.06F
EDENTON*       SUNNY     87  71  59 SW7       30.08S
CURRITUCK*     PTSUNNY   84  70  62 SW5       30.08S
KILL DEVIL HLS MOSUNNY   83  70  64 CALM      30.08S
MANTEO         PTSUNNY   80  71  75 S12       30.09S
CAPE HATTERAS  PTSUNNY   80  72  76 SW10      30.13S HAZE
TARBORO*       NOT AVBL
GOLDSBORO      MOSUNNY   87  72  60 SW14      30.06F
WASHINGTON     SUNNY     86  71  59 SW9       30.07F
GREENVILLE     PTSUNNY   86  70  58 SW10G18   30.08F
NEW BERN       PTSUNNY   85  74  69 S12       30.09F
WILMINGTON     CLOUDY    83  73  72 SW12G21   30.10S
$$

VAZ048-281900-
ELSEWHERE

CITY           SKY/WX    TMP DP  RH WIND       PRES   REMARKS
HARRISBURG PA  MOSUNNY   78  47  33 NW9       30.03R
BALTIMORE      MOSUNNY   82  58  43 SW5G17    30.02F
ANNAPOLIS      SUNNY     76  62  62 SE12      30.03F
ANDREWS AFB    SUNNY     82  56  42 CALM      30.03F
PHILADELPHIA   SUNNY     82  49  31 SW10      30.01S
HENDERSON NC   MOSUNNY   81  66  61 SW9G16    30.07S
GREENSBORO     PTSUNNY   81  65  58 SW6       30.06F
ROCKY MOUNT      N/A     85  72  65 SW10      30.07S
$$

VAZ100-281900-
MARINE

STATION/POSITION TIME  TEMP    WIND        PRES    WAVE   SWELL
                       AIR SEA DIR/SP/G            HT/PER HT/PER
                 (UTC) (F)     (DEG/KT/KT) (MB)    (FT/S) (FT/S)
CAPE MAY NJ      1748   70 58  230/  6/  7 1017.0F
LEWES DE         1748   76 57   80/  6/  8 1017.3F
15NM E FENWICK I 1750   58 54  200/  8/  8 1018.3F   4/ 9   3/ 9
OCEAN-CITY-INLET 1748   61 54  200/  7/ 11 1018.1S
WACHAPREAGUE VA  1748   75 70  160/  8/ 10 1017.5S
THOMAS POINT MD  1800   75 59  140/ 10/ 10   N/A
GOOSES REEF MD   1800   70 61  160/  2/  2 1018.2    0
COVE POINT MD    1748   71     200/  2/  3 1018.2F
SOLOMONS ISLAND  1748   72 63  100/  7/  7   N/A
BISHOPS HEAD MD  1748   69 73  230/  7/  8 1018.4R
PINEY POINT MD   1748          140/  3/  3   N/A
POTOMAC MD       1800   68 63   90/  6/  8 1016.8    0
CAMBRIDGE MD     1742   79 67                N/A
LEWISETTA VA     1748   69 66  100/  6/  7 1017.3F
RAPPAHANNOCK LGT 1748          150/  5/  6 1018.5S
STINGRAY PT      1750   69     150/  6/  8 1018.1F
YORK RVR RNG VA  1748   73     120/  8/  9 1017.2F
YORKTOWN VA      1748   81 65  190/  4/  7 1017.3F
JAMESTOWN VA     1800   79 71  130/  4/  6   N/A     0
DOMINION TERM VA 1748   77     160/  2/  3 1017.8F
KIPTOPEKE VA     1748      63  170/  4/  5   N/A
CHES BAY BRIDGE  1748   75 62  140/  3/  4 1017.8F
CAPE HENRY VA    1748   74     120/  8/ 10   N/A
WILLOUBY STN VA  1748   78     230/  5/  5 1018.9F
S CRANEY ISL VA  1748   81     220/  5/  8 1017.6F
CAPE HENRY BUOY  1742      66                N/A     3/ 8
1ST LANDING BUOY 1800   75 64              1017.9    1/ 5
CAPE CHARLES BUO 1751      64                N/A     3/ 8   2/11
64NM E OF VA BCH 1750   60 57  200/  8/ 10 1019.7R   5/ 8   5/ 8
DUCK PIER NC     1748   80 56  230/  6/  8 1018.3R
44100 DUCK FRF   1705      65                N/A     4/ 8   2/11
44056 DUCK FRF   1730      62                N/A     3/ 8   2/11
OREGON INLET NC  1748          190/ 17/ 20   N/A
HATTERAS NC      1748   78 71  200/  5/  9 1020.0S
DIAMOND SHLS NC  1750   78 76  210/ 16/ 17 1020.3R   5/ 8   3/ 8
CAPE LOOKOUT NC  1800   78     200/ 13/ 17 1019.8F
$$



USA.gov is the U.S. government's official web portal to all federal, state and local government web resources and services.